Regional Weather Roundup
Issued by NWS

Home | Current Version | Previous Version | Graphics & Text | Print | Product List | Glossary On
Versions: 1 2 3 4 5 6 7 8 9 10 11 12 13 14 15 16 17 18 19 20 21 22 23 24 25 26 27 28 29 30 31 32 33 34 35 36 37 38 39 40 41 42 43 44 45 46 47 48 49 50
000
ASUS43 KIND 261209
RWRIN

WEATHER ROUNDUP FOR INDIANA
NATIONAL WEATHER SERVICE INDIANAPOLIS IN
800 AM EDT THU MAR 26 2015

NOTE: "FAIR" INDICATES FEW OR NO CLOUDS BELOW 12,000 FEET WITH NO
SIGNIFICANT WEATHER AND/OR OBSTRUCTIONS TO VISIBILITY.

* - STATION DOES NOT REPORT WEATHER SUCH AS PRECIPITATION OR FOG.

+ - STATION NOT QUALITY CONTROLLED BY THE NATIONAL WEATHER SERVICE.
    USE DATA WITH CAUTION...ESPECIALLY DEWPOINT AND RELATIVE
    HUMIDITY OBSERVATIONS.

INZ001>003-010>013-019-020-261300-
NORTHWEST INDIANA

CITY           SKY/WX    TMP DP  RH WIND       PRES   REMARKS
GARY /AIRPORT/ MOCLDY    36  25  64 NW7       29.97R
KNOX *+          N/A     34  23  64 NW6       29.94R WCI  29
LA PORTE +     CLOUDY    36  31  82 NW5       29.95R
6HR MIN TEMP:  36; 6HR MAX TEMP:  39;

MICHIGAN CITY+ CLOUDY    34  27  75 NW3       29.96S
MONTICELLO +   RAIN      34  33  98 N6        29.94S WCI  29
6HR MIN TEMP:  34; 6HR MAX TEMP:  40; 6HR PCP:  0.21;

RENSSELAER +   CLOUDY    34  34 100 NW5       29.96S WCI  30
VALPARAISO     CLOUDY    34  27  75 NW3       29.95S
6HR MIN TEMP:  34; 6HR MAX TEMP:  38;


$$

LMZ046-743>745-261300-
SOUTHERN LAKE MICHIGAN

STATION/POSITION TIME  TEMP WIND        PRES
                       AIR  DIR/SP/G
                 (UTC) (F)  (DEG/KT/KT) (MB)
BURNS HARBOR     1200   36  310/  8/ 10 1015.2R
MICHIGAN CITY    1200   33  260/  9/ 10   N/A

$$

INZ004-005-014>016-021>024-261300-
NORTH CENTRAL INDIANA

CITY           SKY/WX    TMP DP  RH WIND       PRES   REMARKS
ELKHART        CLOUDY    36  27  69 NW5       29.94R
GOSHEN         CLOUDY    36  29  75 NW9       29.92R
6HR MIN TEMP:  36; 6HR MAX TEMP:  40;

LOGANSPORT +   LGT RAIN  34  32  93 N6        29.94R WCI  29
PERU/GRISSOM   LGT RAIN  36  34  94 NW10      29.92R FOG
6HR MIN TEMP:  36; 6HR MAX TEMP:  41; 6HR PCP:  0.57;

ROCHESTER +    DRIZZLE   36  34  93 NW6       29.94R
SOUTH BEND     CLOUDY    35  30  82 NW6       29.94S WCI  30
6HR MIN TEMP:  35; 6HR MAX TEMP:  39;

WARSAW +       CLOUDY    34  32  93 NW5       29.92R WCI  30

$$

INZ006>009-017-018-025>027-261300-
NORTHEAST INDIANA

CITY           SKY/WX    TMP DP  RH WIND       PRES   REMARKS
ANGOLA *+      MOCLDY    36  27  69 CALM      29.90S
AUBURN +       RAIN      34  32  93 N5        29.91S WCI  30
FORT WAYNE     LGT RAIN  37  36  96 N3        29.91S FOG
6HR MIN TEMP:  37; 6HR MAX TEMP:  42; 6HR PCP:  0.65;

HUNTINGTON +   DRIZZLE   36  33  88 NW5       29.91S
6HR MIN TEMP:  36; 6HR MAX TEMP:  41; 6HR PCP:  0.55;


$$

INZ028-029-035-036-043>045-051>053-261300-
WEST CENTRAL INDIANA

CITY           SKY/WX    TMP DP  RH WIND       PRES   REMARKS
CRAWFORDSVL +  LGT SNOW  33  30  87 MISG      29.94R
6HR MIN TEMP:  33; 6HR MAX TEMP:  40; 6HR PCP:  0.22;

GREENCASTLE +  CLOUDY    36  32  87 N9        29.92R FOG
LAFAYETTE      LGT RAIN  34  32  92 NW7       29.95R WCI  28
6HR MIN TEMP:  34; 6HR MAX TEMP:  40; 6HR PCP:  0.26;

TERRE HAUTE    CLOUDY    38  36  92 NW8       29.95R
6HR MIN TEMP:  38; 6HR MAX TEMP:  46; 6HR PCP:  0.38;


$$

INZ030>032-037>040-046>048-054>057-064-065-261300-
CENTRAL INDIANA

CITY           SKY/WX    TMP DP  RH WIND       PRES   REMARKS
CP ATTERBURY + LGT RAIN  41  37  87 N3        29.90S
COLUMBUS       LGT RAIN  39  37  93 N7        29.90R FOG
FISHERS *+     CLOUDY    37  37 100 N3        29.92R
FRANKFORT +    RAIN      37  37 100 NW7       29.94R
6HR MIN TEMP:  37; 6HR MAX TEMP:  41; 6HR PCP:  0.55;

GREENWOOD *+   CLOUDY    39  36  87 N10       29.90S
INDIANAPOLIS   LGT RAIN  39  36  89 N15       29.89S
6HR MIN TEMP:  39; 6HR MAX TEMP:  45; 6HR PCP:  0.44;

-EAGLE CREEK   LGT RAIN  38  36  92 N9        29.91R
6HR MIN TEMP:  38; 6HR MAX TEMP:  44; 6HR PCP:  0.44;

KOKOMO *+      CLOUDY    37  34  87 N12       29.93R
6HR MIN TEMP:  37; 6HR MAX TEMP:  43; 6HR PCP:  0.70;

MARION +       CLOUDY    37  37 100 N3        29.93R FOG
MT COMFORT *+  CLOUDY    37 N/A N/A N13       29.91R
SHELBYVILLE    LGT RAIN  41  38  89 N9        29.89R
6HR MIN TEMP:  41; 6HR MAX TEMP:  47; 6HR PCP:  0.44;

ZIONSVILLE +   LGT RAIN  38  35  87 N7        29.92R
6HR MIN TEMP:  38; 6HR MAX TEMP:  43; 6HR PCP:  0.39;


$$

INZ033-034-041-042-049-050-058-059-261300-
EAST CENTRAL INDIANA

CITY           SKY/WX    TMP DP  RH WIND       PRES   REMARKS
MUNCIE         LGT RAIN  38  36  92 N9        29.90R FOG
6HR MIN TEMP:  38; 6HR MAX TEMP:  43; 6HR PCP:  0.35;


$$

INZ060-061-067>069-081>083-085>088-261300-
SOUTHWEST INDIANA

CITY           SKY/WX    TMP DP  RH WIND       PRES   REMARKS
EVANSVILLE     CLOUDY    46  43  89 N10       29.91R FOG
6HR MIN TEMP:  46; 6HR MAX TEMP:  52; 6HR PCP:  0.74;

HUNTINGBURG *+ CLOUDY    46  43  87 N13G18    29.90R
6HR MIN TEMP:  46; 6HR MAX TEMP:  48; 6HR PCP:  0.50;

WASHINGTON +   CLOUDY    42  38  88 N12       29.92R
6HR MIN TEMP:  42; 6HR MAX TEMP:  47; 6HR PCP:  0.55;


$$

INZ062-063-066-070>080-084-089>092-261300-
SOUTH CENTRAL AND SOUTHEAST INDIANA

CITY           SKY/WX    TMP DP  RH WIND       PRES   REMARKS
BEDFORD +      RAIN      43  41  93 N3        29.90R
BLOOMINGTON    LGT RAIN  41  39  93 N12       29.91R
6HR MIN TEMP:  41; 6HR MAX TEMP:  47; 6HR PCP:  0.56;

NORTH VERNON + LGT RAIN  45  45 100 N6        29.88S
SEYMOUR +      RAIN      45  43  93 N9        29.88R

$$



USA.gov is the U.S. government's official web portal to all federal, state and local government web resources and services.